| time (UTC) | temp F | wind direction | speed MPH | gust MPH | rain 1hr in | rain 24hr in | rain mn in | humidity % | barometer mb |
| 20260831204531 | 73 | 113 | 3.0 | 9.0 | 0.00 | 0.06 | 0.06 | 90 | 1014.8 |
| 20260831204502 | 73 | 176 | 2.0 | 5.0 | 0.00 | 0.06 | 0.06 | 90 | 1014.9 |
| 20260831203941 | 74 | 171 | 2.0 | 6.0 | 0.00 | 0.06 | 0.06 | 90 | 1014.9 |
| 20260831203717 | 74 | 144 | 2.0 | 6.0 | 0.00 | 0.06 | 0.06 | 90 | 1014.9 |
| 20260831202502 | 74 | 132 | 2.0 | 5.0 | 0.00 | 0.06 | 0.06 | 90 | 1015.1 |
| 20260831201502 | 74 | 240 | 2.0 | 4.0 | 0.00 | 0.06 | 0.06 | 89 | 1015.2 |
| 20260831201009 | 74 | 153 | 2.0 | 4.0 | 0.00 | 0.06 | 0.06 | 89 | 1015.3 |
| 20260831200503 | 74 | 66 | 2.0 | 6.0 | 0.00 | 0.06 | 0.06 | 89 | 1015.3 |
| 20260831200440 | 74 | 77 | 3.0 | 6.0 | 0.00 | 0.06 | 0.06 | 89 | 1015.6 |
| 20260831195720 | 74 | 99 | 3.0 | 6.0 | 0.00 | 0.06 | 0.06 | 89 | 1015.6 |
| 20260831194503 | 74 | 113 | 3.0 | 5.0 | 0.00 | 0.06 | 0.06 | 89 | 1015.8 |
| 20260831193535 | 73 | 89 | 3.0 | 5.0 | 0.00 | 0.06 | 0.06 | 91 | 1016.0 |
| 20260831193503 | 73 | 114 | 3.0 | 5.0 | 0.00 | 0.06 | 0.06 | 91 | 1016.0 |
| 20260831192530 | 72 | 153 | 2.0 | 4.0 | 0.02 | 0.06 | 0.06 | 91 | 1016.6 |
| 20260831192510 | 72 | 105 | 2.0 | 4.0 | 0.02 | 0.06 | 0.06 | 91 | 1016.6 |
| 20260831191943 | 72 | 111 | 0.0 | 3.0 | 0.02 | 0.06 | 0.06 | 93 | 1016.8 |
| 20260831191717 | 72 | 111 | 0.0 | 3.0 | 0.02 | 0.06 | 0.06 | 93 | 1016.8 |
| 20260831190503 | 72 | 0 | 1.0 | 3.0 | 0.02 | 0.06 | 0.06 | 93 | 1016.8 |
| 20260831185943 | 72 | 103 | 2.0 | 4.0 | 0.02 | 0.06 | 0.06 | 92 | 1016.6 |
| 20260831185449 | 72 | 108 | 2.0 | 4.0 | 0.02 | 0.06 | 0.06 | 92 | 1016.6 |
| 20260831184948 | 72 | 0 | 1.0 | 3.0 | 0.02 | 0.06 | 0.06 | 94 | 1016.8 |
| 20260831184448 | 72 | 0 | 1.0 | 3.0 | 0.02 | 0.06 | 0.06 | 94 | 1016.8 |
| 20260831183908 | 72 | 0 | 1.0 | 2.0 | 0.02 | 0.06 | 0.06 | 93 | 1016.7 |
| 20260831183646 | 72 | 0 | 1.0 | 2.0 | 0.02 | 0.06 | 0.06 | 93 | 1016.7 |
| 20260831182502 | 73 | 0 | 0.0 | 2.0 | 0.00 | 0.04 | 0.04 | 92 | 1017.3 |
| 20260831182432 | 73 | 114 | 0.0 | 2.0 | 0.00 | 0.04 | 0.04 | 92 | 1017.3 |
| 20260831181503 | 73 | 0 | 0.0 | 2.0 | 0.00 | 0.04 | 0.04 | 90 | 1016.8 |
| 20260831181431 | 73 | 316 | 0.0 | 2.0 | 0.00 | 0.04 | 0.04 | 90 | 1016.7 |
| 20260831180938 | 74 | 0 | 0.0 | 3.0 | 0.00 | 0.04 | 0.04 | 88 | 1016.1 |
| 20260831180431 | 74 | 0 | 0.0 | 3.0 | 0.00 | 0.05 | 0.04 | 87 | 1016.1 |
| 20260831175503 | 74 | 0 | 1.0 | 4.0 | 0.00 | 0.05 | 0.04 | 87 | 1016.0 |
| 20260831175431 | 74 | 0 | 1.0 | 4.0 | 0.00 | 0.05 | 0.04 | 86 | 1016.0 |
| 20260831174916 | 73 | 123 | 2.0 | 3.0 | 0.01 | 0.05 | 0.04 | 91 | 1016.0 |
| 20260831174646 | 73 | 126 | 2.0 | 3.0 | 0.01 | 0.05 | 0.04 | 90 | 1016.0 |
| 20260831173501 | 73 | 59 | 0.0 | 2.0 | 0.02 | 0.05 | 0.04 | 93 | 1016.2 |
| 20260831173431 | 73 | 59 | 0.0 | 2.0 | 0.02 | 0.05 | 0.04 | 93 | 1016.2 |
| 20260831172940 | 72 | 0 | 0.0 | 1.0 | 0.03 | 0.05 | 0.03 | 93 | 1016.5 |
| 20260831172431 | 72 | 0 | 0.0 | 1.0 | 0.03 | 0.05 | 0.03 | 92 | 1016.2 |
| 20260831171503 | 71 | 0 | 0.0 | 2.0 | 0.03 | 0.05 | 0.03 | 92 | 1016.7 |
| 20260831171431 | 71 | 0 | 0.0 | 2.0 | 0.03 | 0.05 | 0.03 | 92 | 1016.7 |
| 20260831170502 | 71 | 0 | 0.0 | 0.0 | 0.03 | 0.05 | 0.03 | 95 | 1016.5 |
| 20260831170432 | 71 | 0 | 0.0 | 0.0 | 0.03 | 0.05 | 0.03 | 95 | 1016.5 |
| 20260831165502 | 70 | 0 | 1.0 | 3.0 | 0.03 | 0.05 | 0.03 | 95 | 1016.4 |
| 20260831165430 | 70 | 0 | 2.0 | 3.0 | 0.03 | 0.05 | 0.03 | 95 | 1016.4 |
| 20260831164502 | 71 | 120 | 1.0 | 4.0 | 0.03 | 0.04 | 0.03 | 93 | 1016.8 |
| 20260831164429 | 71 | 125 | 1.0 | 4.0 | 0.03 | 0.04 | 0.03 | 93 | 1016.8 |
| 20260831163504 | 72 | 0 | 1.0 | 5.0 | 0.02 | 0.04 | 0.02 | 88 | 1017.5 |
| 20260831163431 | 72 | 0 | 1.0 | 5.0 | 0.02 | 0.04 | 0.02 | 88 | 1017.5 |
| 20260831162502 | 74 | 298 | 2.0 | 8.0 | 0.00 | 0.05 | 0.00 | 84 | 1018.0 |
| 20260831162430 | 74 | 302 | 2.0 | 8.0 | 0.00 | 0.05 | 0.00 | 84 | 1018.0 |
| 20260831161501 | 75 | 248 | 3.0 | 8.0 | 0.00 | 0.05 | 0.00 | 81 | 1018.1 |
| 20260831161429 | 75 | 247 | 3.0 | 8.0 | 0.00 | 0.05 | 0.00 | 81 | 1018.0 |
| 20260831161403 | 75 | 341 | 1.0 | 4.0 | 0.00 | 0.09 | 0.00 | 82 | 1017.8 |
| 20260831160651 | 76 | 226 | 2.0 | 4.0 | 0.00 | 0.06 | 0.00 | 80 | 1018.1 |
| 20260831160430 | 76 | 17 | 1.0 | 4.0 | 0.00 | 0.06 | 0.00 | 80 | 1018.1 |
| 20260831155432 | 75 | 0 | 1.0 | 4.0 | 0.00 | 0.09 | 0.00 | 82 | 1017.8 |
| 20260831154502 | 75 | 150 | 0.0 | 3.0 | 0.00 | 0.09 | 0.00 | 83 | 1017.6 |
| 20260831154431 | 75 | 337 | 0.0 | 3.0 | 0.00 | 0.09 | 0.00 | 83 | 1017.6 |
| 20260831153502 | 75 | 0 | 0.0 | 2.0 | 0.00 | 0.11 | 0.00 | 84 | 1017.5 |
| 20260831153436 | 75 | 0 | 0.0 | 2.0 | 0.00 | 0.11 | 0.00 | 84 | 1017.5 |
| 20260831152502 | 74 | 0 | 0.0 | 2.0 | 0.00 | 0.13 | 0.00 | 84 | 1017.5 |
| 20260831152430 | 74 | 47 | 0.0 | 2.0 | 0.00 | 0.13 | 0.00 | 84 | 1017.5 |
| 20260831151504 | 74 | 0 | 0.0 | 0.0 | 0.00 | 0.15 | 0.00 | 86 | 1017.3 |
| 20260831151431 | 74 | 0 | 0.0 | 0.0 | 0.00 | 0.15 | 0.00 | 87 | 1017.3 |
| 20260831150504 | 73 | 0 | 0.0 | 2.0 | 0.00 | 0.16 | 0.00 | 87 | 1017.1 |
| 20260831150430 | 73 | 0 | 0.0 | 2.0 | 0.00 | 0.16 | 0.00 | 88 | 1017.1 |
| 20260831145503 | 73 | 0 | 0.0 | 2.0 | 0.00 | 0.18 | 0.00 | 88 | 1016.9 |
| 20260831145430 | 73 | 0 | 0.0 | 2.0 | 0.00 | 0.18 | 0.00 | 88 | 1016.9 |
| 20260831144938 | 72 | 0 | 0.0 | 1.0 | 0.00 | 0.18 | 0.00 | 88 | 1016.7 |
| 20260831144430 | 72 | 0 | 0.0 | 1.0 | 0.00 | 0.18 | 0.00 | 90 | 1016.6 |
| 20260831143452 | 72 | 145 | 0.0 | 1.0 | 0.00 | 0.19 | 0.00 | 91 | 1016.5 |
| 20260831143431 | 72 | 160 | 0.0 | 1.0 | 0.00 | 0.19 | 0.00 | 91 | 1016.5 |
| 20260831142431 | 72 | 0 | 0.0 | 1.0 | 0.00 | 0.21 | 0.00 | 91 | 1016.5 |
| 20260831142418 | 71 | 0 | 0.0 | 2.0 | 0.00 | 0.23 | 0.00 | 92 | 1016.5 |
| 20260831142205 | 71 | 0 | 0.0 | 1.0 | 0.00 | 0.23 | 0.00 | 92 | 1016.6 |
| 20260831140436 | 71 | 176 | 1.0 | 2.0 | 0.00 | 0.26 | 0.00 | 92 | 1016.5 |
| 20260831140422 | 71 | 176 | 1.0 | 2.0 | 0.00 | 0.26 | 0.00 | 92 | 1016.5 |
| 20260831135917 | 71 | 136 | 0.0 | 1.0 | 0.00 | 0.29 | 0.00 | 93 | 1016.4 |
| 20260831135407 | 71 | 0 | 0.0 | 1.0 | 0.00 | 0.29 | 0.00 | 92 | 1016.4 |
| 20260831134408 | 71 | 136 | 1.0 | 2.0 | 0.00 | 0.31 | 0.00 | 91 | 1016.5 |
| 20260831133408 | 70 | 0 | 1.0 | 2.0 | 0.00 | 0.34 | 0.00 | 92 | 1016.4 |
| 20260831133325 | 70 | 133 | 0.0 | 2.0 | 0.00 | 0.36 | 0.00 | 93 | 1016.5 |
| 20260831132621 | 70 | 133 | 0.0 | 2.0 | 0.00 | 0.36 | 0.00 | 93 | 1016.5 |
| 20260831132023 | 70 | 0 | 0.0 | 1.0 | 0.00 | 0.39 | 0.00 | 93 | 1016.5 |
| 20260831131839 | 70 | 0 | 0.0 | 3.0 | 0.00 | 0.44 | 0.00 | 93 | 1016.1 |
| 20260831131757 | 70 | 0 | 0.0 | 1.0 | 0.00 | 0.39 | 0.00 | 93 | 1016.5 |
| 20260831130619 | 70 | 0 | 0.0 | 3.0 | 0.00 | 0.44 | 0.00 | 93 | 1016.1 |
| 20260831125402 | 69 | 0 | 1.0 | 2.0 | 0.00 | 0.47 | 0.00 | 93 | 1016.0 |
| 20260831124402 | 69 | 0 | 0.0 | 1.0 | 0.00 | 0.50 | 0.00 | 95 | 1016.0 |
| 20260831123401 | 69 | 0 | 0.0 | 0.0 | 0.00 | 0.54 | 0.00 | 96 | 1016.1 |
| 20260831122907 | 69 | 0 | 0.0 | 0.0 | 0.00 | 0.56 | 0.00 | 96 | 1016.1 |
| 20260831122412 | 69 | 0 | 0.0 | 0.0 | 0.00 | 0.56 | 0.00 | 96 | 1016.1 |
| 20260831121912 | 68 | 0 | 0.0 | 0.0 | 0.00 | 0.59 | 0.00 | 96 | 1016.2 |
| 20260831121404 | 68 | 0 | 0.0 | 0.0 | 0.00 | 0.60 | 0.00 | 96 | 1016.2 |
| 20260831120402 | 68 | 0 | 0.0 | 0.0 | 0.00 | 0.61 | 0.00 | 96 | 1016.1 |
| 20260831115845 | 68 | 0 | 0.0 | 0.0 | 0.00 | 0.62 | 0.00 | 96 | 1016.2 |
| 20260831115616 | 68 | 0 | 0.0 | 0.0 | 0.00 | 0.62 | 0.00 | 96 | 1016.2 |
| 20260831115357 | 68 | 0 | 0.0 | 2.0 | 0.00 | 0.62 | 0.00 | 96 | 1016.2 |
| 20260831114403 | 68 | 0 | 0.0 | 2.0 | 0.00 | 0.62 | 0.00 | 96 | 1016.2 |
| 20260831113907 | 68 | 0 | 0.0 | 2.0 | 0.00 | 0.63 | 0.00 | 96 | 1016.4 |
| 20260831113403 | 68 | 0 | 0.0 | 2.0 | 0.00 | 0.63 | 0.00 | 96 | 1016.4 |
| 20260831112402 | 68 | 0 | 0.0 | 0.0 | 0.00 | 0.63 | 0.00 | 95 | 1016.4 |
| 20260831111912 | 68 | 0 | 0.0 | 1.0 | 0.00 | 0.63 | 0.00 | 97 | 1016.4 |
| 20260831111402 | 68 | 0 | 0.0 | 1.0 | 0.00 | 0.63 | 0.00 | 97 | 1016.4 |
| 20260831110843 | 68 | 0 | 0.0 | 2.0 | 0.00 | 0.63 | 0.00 | 97 | 1016.5 |
| 20260831110618 | 68 | 0 | 0.0 | 2.0 | 0.00 | 0.63 | 0.00 | 97 | 1016.5 |
| 20260831105404 | 67 | 0 | 0.0 | 0.0 | 0.00 | 0.63 | 0.00 | 97 | 1016.4 |
| 20260831104404 | 68 | 0 | 0.0 | 0.0 | 0.00 | 0.63 | 0.00 | 97 | 1016.2 |
| 20260831103403 | 68 | 0 | 0.0 | 0.0 | 0.00 | 0.63 | 0.00 | 96 | 1016.2 |
| 20260831102404 | 68 | 0 | 0.0 | 0.0 | 0.00 | 0.63 | 0.00 | 96 | 1016.2 |
| 20260831101404 | 68 | 0 | 0.0 | 0.0 | 0.00 | 0.63 | 0.00 | 96 | 1016.1 |
| 20260831100849 | 68 | 0 | 0.0 | 0.0 | 0.00 | 0.63 | 0.00 | 96 | 1016.0 |
| 20260831100403 | 68 | 0 | 0.0 | 0.0 | 0.00 | 0.63 | 0.00 | 96 | 1016.0 |
| 20260831095403 | 68 | 0 | 0.0 | 0.0 | 0.00 | 0.64 | 0.00 | 97 | 1016.0 |
| 20260831094403 | 67 | 0 | 0.0 | 0.0 | 0.00 | 0.65 | 0.00 | 98 | 1016.0 |
| 20260831093403 | 67 | 0 | 0.0 | 0.0 | 0.00 | 0.66 | 0.00 | 98 | 1016.0 |
| 20260831092847 | 67 | 0 | 0.0 | 1.0 | 0.00 | 0.66 | 0.00 | 98 | 1016.0 |
| 20260831092408 | 67 | 0 | 0.0 | 1.0 | 0.00 | 0.66 | 0.00 | 98 | 1016.0 |
| 20260831091401 | 67 | 229 | 0.0 | 1.0 | 0.00 | 0.66 | 0.00 | 99 | 1016.0 |
| 20260831090847 | 67 | 0 | 0.0 | 1.0 | 0.00 | 0.67 | 0.00 | 99 | 1016.1 |
| 20260831090613 | 67 | 0 | 0.0 | 1.0 | 0.00 | 0.67 | 0.00 | 99 | 1016.1 |
| 20260831090322 | 67 | 189 | 0.0 | 2.0 | 0.00 | 0.67 | 0.00 | 99 | 1016.1 |
| 20260831085403 | 67 | 189 | 0.0 | 2.0 | 0.00 | 0.67 | 0.00 | 99 | 1016.1 |
| 20260831084851 | 66 | 0 | 0.0 | 0.0 | 0.00 | 0.69 | 0.00 | 99 | 1016.1 |
| 20260831084402 | 66 | 0 | 0.0 | 0.0 | 0.00 | 0.69 | 0.00 | 99 | 1016.1 |
| 20260831083402 | 65 | 0 | 0.0 | 0.0 | 0.00 | 0.70 | 0.00 | 98 | 1016.0 |
| 20260831082358 | 66 | 0 | 0.0 | 0.0 | 0.00 | 0.74 | 0.00 | 98 | 1015.8 |
| 20260831081841 | 66 | 0 | 0.0 | 0.0 | 0.00 | 0.74 | 0.00 | 98 | 1015.7 |
| 20260831081359 | 66 | 0 | 0.0 | 0.0 | 0.00 | 0.74 | 0.00 | 98 | 1015.7 |
| 20260831081316 | 66 | 0 | 0.0 | 0.0 | 0.00 | 0.74 | 0.00 | 98 | 1015.8 |
| 20260831080359 | 66 | 0 | 0.0 | 0.0 | 0.00 | 0.74 | 0.00 | 98 | 1015.8 |
| 20260831075401 | 66 | 0 | 0.0 | 0.0 | 0.00 | 0.74 | 0.00 | 98 | 1016.0 |
| 20260831074359 | 66 | 0 | 0.0 | 0.0 | 0.00 | 0.74 | 0.00 | 98 | 1016.0 |
| 20260831073838 | 66 | 0 | 0.0 | 0.0 | 0.00 | 0.74 | 0.00 | 98 | 1016.1 |
| 20260831073610 | 66 | 0 | 0.0 | 0.0 | 0.00 | 0.74 | 0.00 | 98 | 1016.1 |
| 20260831072831 | 66 | 0 | 0.0 | 0.0 | 0.00 | 0.74 | 0.00 | 98 | 1016.1 |
| 20260831072343 | 66 | 0 | 0.0 | 0.0 | 0.00 | 0.74 | 0.00 | 98 | 1016.1 |
| 20260831071344 | 66 | 0 | 0.0 | 0.0 | 0.00 | 0.75 | 0.00 | 98 | 1016.0 |
| 20260831070815 | 67 | 0 | 0.0 | 0.0 | 0.00 | 0.75 | 0.00 | 98 | 1016.2 |
| 20260831070556 | 67 | 0 | 0.0 | 0.0 | 0.00 | 0.75 | 0.00 | 98 | 1016.2 |
| 20260831065344 | 67 | 0 | 0.0 | 0.0 | 0.00 | 0.75 | 0.00 | 98 | 1016.4 |
| 20260831064344 | 67 | 0 | 0.0 | 0.0 | 0.00 | 0.75 | 0.00 | 97 | 1016.5 |
| 20260831063344 | 67 | 0 | 0.0 | 0.0 | 0.00 | 0.75 | 0.00 | 97 | 1016.5 |
| 20260831062345 | 67 | 0 | 0.0 | 0.0 | 0.00 | 0.75 | 0.00 | 97 | 1016.5 |
| 20260831061345 | 67 | 0 | 0.0 | 0.0 | 0.00 | 0.75 | 0.00 | 97 | 1016.5 |
| 20260831060835 | 67 | 0 | 0.0 | 0.0 | 0.00 | 0.75 | 0.00 | 97 | 1016.5 |
| 20260831060345 | 67 | 0 | 0.0 | 0.0 | 0.00 | 0.75 | 0.00 | 97 | 1016.5 |
| 20260831055810 | 68 | 0 | 0.0 | 0.0 | 0.00 | 0.75 | 0.00 | 96 | 1016.6 |
| 20260831055330 | 68 | 0 | 0.0 | 0.0 | 0.00 | 0.75 | 0.00 | 96 | 1016.6 |
| 20260831054330 | 68 | 0 | 0.0 | 0.0 | 0.00 | 0.75 | 0.00 | 96 | 1016.7 |
| 20260831053330 | 68 | 0 | 0.0 | 3.0 | 0.00 | 0.75 | 0.00 | 96 | 1016.6 |
| 20260831053248 | 68 | 0 | 0.0 | 2.0 | 0.00 | 0.75 | 0.00 | 97 | 1016.6 |
| 20260831052330 | 68 | 0 | 0.0 | 2.0 | 0.00 | 0.75 | 0.00 | 97 | 1016.6 |
| 20260831051806 | 68 | 0 | 0.0 | 2.0 | 0.00 | 0.75 | 0.00 | 97 | 1016.6 |
| 20260831051541 | 68 | 0 | 0.0 | 2.0 | 0.00 | 0.75 | 0.00 | 97 | 1016.6 |
| 20260831050330 | 68 | 0 | 0.0 | 2.0 | 0.00 | 0.75 | 0.00 | 97 | 1016.7 |
| 20260831045329 | 68 | 0 | 0.0 | 0.0 | 0.00 | 0.75 | 0.00 | 97 | 1016.8 |
| 20260831044330 | 68 | 0 | 0.0 | 2.0 | 0.00 | 0.75 | 0.00 | 97 | 1016.8 |
| 20260831043330 | 68 | 178 | 0.0 | 3.0 | 0.00 | 0.75 | 0.00 | 96 | 1016.8 |
| 20260831042811 | 67 | 0 | 0.0 | 3.0 | 0.00 | 0.76 | 0.00 | 97 | 1016.7 |
| 20260831042330 | 67 | 0 | 0.0 | 3.0 | 0.00 | 0.76 | 0.00 | 97 | 1016.7 |
| 20260831042254 | 67 | 0 | 0.0 | 2.0 | 0.00 | 0.76 | 0.00 | 97 | 1016.7 |
| 20260831041330 | 67 | 0 | 0.0 | 2.0 | 0.00 | 0.76 | 0.00 | 97 | 1016.7 |
| 20260831040819 | 67 | 0 | 0.0 | 2.0 | 0.00 | 0.76 | 0.00 | 97 | 1016.8 |
| 20260831040331 | 67 | 0 | 0.0 | 2.0 | 0.00 | 0.76 | 0.00 | 97 | 1016.8 |
| 20260831035332 | 67 | 0 | 0.0 | 2.0 | 0.00 | 0.76 | 0.76 | 97 | 1016.8 |
| 20260831034330 | 67 | 0 | 0.0 | 2.0 | 0.00 | 0.76 | 0.76 | 97 | 1016.9 |
| 20260831033329 | 67 | 128 | 0.0 | 1.0 | 0.00 | 0.76 | 0.76 | 98 | 1016.8 |
| 20260831032331 | 67 | 0 | 0.0 | 4.0 | 0.00 | 0.76 | 0.76 | 98 | 1016.8 |
| 20260831032253 | 67 | 194 | 0.0 | 4.0 | 0.00 | 0.76 | 0.76 | 98 | 1016.7 |
| 20260831031542 | 67 | 194 | 0.0 | 4.0 | 0.00 | 0.76 | 0.76 | 98 | 1016.7 |
| 20260831030330 | 67 | 0 | 0.0 | 3.0 | 0.00 | 0.76 | 0.76 | 98 | 1016.7 |
| 20260831025319 | 67 | 0 | 0.0 | 1.0 | 0.00 | 0.76 | 0.76 | 98 | 1016.7 |
| 20260831024303 | 67 | 205 | 0.0 | 2.0 | 0.00 | 0.76 | 0.76 | 98 | 1016.7 |
| 20260831023304 | 67 | 142 | 0.0 | 2.0 | 0.00 | 0.76 | 0.76 | 98 | 1016.7 |
| 20260831022747 | 67 | 189 | 0.0 | 2.0 | 0.00 | 0.76 | 0.76 | 98 | 1016.6 |
| 20260831022306 | 67 | 189 | 0.0 | 2.0 | 0.00 | 0.76 | 0.76 | 98 | 1016.6 |
| 20260831022222 | 67 | 0 | 0.0 | 2.0 | 0.00 | 0.76 | 0.76 | 98 | 1016.7 |
| 20260831021305 | 67 | 0 | 0.0 | 2.0 | 0.00 | 0.76 | 0.76 | 98 | 1016.7 |
| 20260831020303 | 67 | 178 | 0.0 | 2.0 | 0.00 | 0.76 | 0.76 | 97 | 1016.7 |
| 20260831015306 | 67 | 228 | 0.0 | 2.0 | 0.00 | 0.76 | 0.76 | 97 | 1016.7 |
| 20260831014744 | 67 | 0 | 0.0 | 2.0 | 0.00 | 0.76 | 0.76 | 97 | 1016.6 |
| 20260831014513 | 67 | 0 | 0.0 | 2.0 | 0.00 | 0.76 | 0.76 | 97 | 1016.6 |
| 20260831013302 | 67 | 229 | 1.0 | 4.0 | 0.00 | 0.76 | 0.76 | 97 | 1016.6 |
| 20260831012738 | 67 | 185 | 1.0 | 3.0 | 0.00 | 0.76 | 0.76 | 97 | 1016.6 |
| 20260831012305 | 67 | 185 | 1.0 | 3.0 | 0.00 | 0.76 | 0.76 | 97 | 1016.6 |
| 20260831011302 | 67 | 0 | 0.0 | 3.0 | 0.00 | 0.76 | 0.76 | 97 | 1016.6 |
| 20260831010746 | 67 | 201 | 1.0 | 2.0 | 0.00 | 0.76 | 0.76 | 97 | 1016.4 |
| 20260831010512 | 67 | 201 | 1.0 | 2.0 | 0.00 | 0.76 | 0.76 | 97 | 1016.4 |
| 20260831005306 | 68 | 209 | 2.0 | 4.0 | 0.00 | 0.76 | 0.76 | 96 | 1016.4 |
| 20260831005226 | 68 | 227 | 1.0 | 3.0 | 0.00 | 0.76 | 0.76 | 96 | 1016.2 |
| 20260831004514 | 68 | 227 | 1.0 | 3.0 | 0.00 | 0.76 | 0.76 | 96 | 1016.2 |
| 20260831003308 | 68 | 186 | 1.0 | 2.0 | 0.00 | 0.76 | 0.76 | 96 | 1016.1 |
| 20260831002737 | 68 | 0 | 0.0 | 2.0 | 0.00 | 0.76 | 0.76 | 96 | 1016.4 |
| 20260831002514 | 68 | 0 | 0.0 | 2.0 | 0.00 | 0.76 | 0.76 | 96 | 1016.4 |
| 20260831001742 | 68 | 153 | 0.0 | 2.0 | 0.00 | 0.76 | 0.76 | 96 | 1016.4 |
| 20260831001514 | 68 | 153 | 0.0 | 2.0 | 0.00 | 0.76 | 0.76 | 96 | 1016.4 |
| 20260831000303 | 68 | 0 | 0.0 | 0.0 | 0.00 | 0.76 | 0.76 | 96 | 1016.2 |
| 20260830235305 | 69 | 0 | 0.0 | 2.0 | 0.00 | 0.76 | 0.76 | 96 | 1016.1 |
| 20260830234302 | 69 | 232 | 1.0 | 4.0 | 0.00 | 0.76 | 0.76 | 95 | 1016.4 |
| 20260830233302 | 69 | 200 | 2.0 | 5.0 | 0.00 | 0.76 | 0.76 | 96 | 1016.4 |
| 20260830232305 | 69 | 249 | 1.0 | 4.0 | 0.00 | 0.76 | 0.76 | 96 | 1016.2 |
| 20260830231739 | 69 | 119 | 1.0 | 3.0 | 0.00 | 0.76 | 0.76 | 97 | 1016.6 |
| 20260830231303 | 69 | 119 | 1.0 | 3.0 | 0.00 | 0.76 | 0.76 | 97 | 1016.6 |
| 20260830230303 | 69 | 259 | 0.0 | 2.0 | 0.00 | 0.76 | 0.76 | 97 | 1016.8 |
| 20260830230228 | 69 | 122 | 0.0 | 2.0 | 0.00 | 0.76 | 0.76 | 97 | 1016.9 |
| 20260830225514 | 69 | 122 | 0.0 | 2.0 | 0.00 | 0.76 | 0.76 | 97 | 1016.9 |
| 20260830224749 | 69 | 103 | 0.0 | 2.0 | 0.00 | 0.76 | 0.76 | 97 | 1017.0 |
| 20260830224302 | 69 | 103 | 0.0 | 2.0 | 0.00 | 0.76 | 0.76 | 97 | 1017.0 |
| 20260830223304 | 69 | 0 | 0.0 | 2.0 | 0.00 | 0.76 | 0.76 | 96 | 1017.3 |
| 20260830222306 | 69 | 0 | 0.0 | 1.0 | 0.00 | 0.76 | 0.76 | 96 | 1017.2 |
| 20260830221303 | 69 | 0 | 0.0 | 2.0 | 0.00 | 0.76 | 0.76 | 95 | 1017.3 |
| 20260830220303 | 69 | 0 | 0.0 | 2.0 | 0.00 | 0.76 | 0.76 | 95 | 1017.1 |
| 20260830215305 | 69 | 0 | 1.0 | 3.0 | 0.00 | 0.76 | 0.76 | 95 | 1016.9 |
| 20260830214303 | 69 | 0 | 0.0 | 3.0 | 0.00 | 0.76 | 0.76 | 96 | 1016.9 |
| 20260830213304 | 69 | 0 | 1.0 | 3.0 | 0.00 | 0.76 | 0.76 | 95 | 1017.1 |
| 20260830212740 | 70 | 134 | 1.0 | 4.0 | 0.00 | 0.76 | 0.76 | 95 | 1017.0 |
| 20260830212513 | 70 | 134 | 1.0 | 4.0 | 0.00 | 0.76 | 0.76 | 95 | 1017.0 |
| 20260830211302 | 70 | 0 | 1.0 | 3.0 | 0.00 | 0.76 | 0.76 | 95 | 1016.8 |
| 20260830210302 | 70 | 188 | 0.0 | 4.0 | 0.00 | 0.76 | 0.76 | 95 | 1016.7 |
| 20260830205305 | 69 | 0 | 1.0 | 3.0 | 0.00 | 0.76 | 0.76 | 96 | 1016.6 |